Theta_e
303 296 294 294 296 296 297 296 295 295 297 296 295 295 293 294 293 291 293 294 293 295 296 297 297 297 298 299 301 302 300 299 300 300 302 303 304 304 304 304 305 306 306 312 306 306 307 307 306 307 310 315 321 324 325 325 326 328 329 330 330 332 333 333 333 334 334 332 334 334 332 332 334 335 337 335 336 337 337 337 336 334 333 334 332 329
299 295 295 297 298 298 295 293 294 294 296 295 293 294 291 294 292 293 294 294 295 295 296 292 294 297 298 300 301 302 298 298 300 301 302 303 303 304 304 304 306 305 305 305 305 305 305 305 308 307 306 308 312 317 322 324 325 326 327 328 330 331 331 331 331 333 333 334 333 332 332 333 333 334 334 334 336 336 337 338 337 336 335 333 331 328
295 294 296 295 292 293 293 294 295 295 294 295 293 294 293 291 294 293 293 294 294 294 296 293 294 297 300 301 303 302 301 302 302 301 301 301 302 303 304 304 304 304 304 304 304 304 303 306 306 305 306 307 308 312 317 321 323 325 326 327 328 329 330 330 331 332 332 334 334 334 333 334 334 337 337 337 337 338 338 337 337 337 337 335 333 332
292 295 296 292 294 294 292 294 295 295 296 294 293 291 290 294 292 291 294 294 293 294 295 295 294 297 300 301 301 302 300 299 297 295 297 299 300 301 302 301 301 301 303 304 305 304 303 304 304 304 304 305 306 307 309 314 319 322 323 325 326 327 329 329 329 329 332 334 335 336 335 335 335 334 336 337 337 336 337 336 338 338 338 337 335 334
293 292 290 292 295 296 293 293 295 294 293 294 296 295 292 289 292 294 293 293 291 291 290 293 294 296 298 297 298 295 292 292 295 294 295 296 297 297 298 298 299 298 299 301 302 303 303 302 303 304 304 303 303 306 307 310 314 317 321 323 325 326 327 328 328 329 331 332 333 334 334 335 334 333 333 331 330 332 335 335 336 336 337 336 334 333
291 291 291 292 294 295 294 292 296 297 293 293 294 296 295 295 293 290 292 293 294 294 292 291 289 291 295 296 295 296 296 297 295 296 298 299 300 300 301 304 305 304 302 300 300 301 301 301 303 305 305 304 304 304 307 309 311 314 317 320 323 324 326 327 328 328 329 329 329 329 328 326 327 326 327 326 327 330 330 331 335 338 338 338 337 335
292 289 291 293 294 295 295 294 295 297 294 291 293 295 293 295 295 294 292 295 290 288 291 289 289 288 296 295 296 294 295 296 296 298 299 300 301 301 303 304 304 303 303 302 300 300 303 306 306 307 307 307 307 307 305 306 309 312 315 319 321 322 324 326 327 328 326 327 328 328 327 327 327 326 327 329 330 330 331 332 333 334 335 335 336 337
290 289 291 294 295 296 294 292 293 295 294 291 292 293 294 296 295 295 295 296 292 292 291 291 292 289 289 295 295 291 293 295 296 299 300 299 299 300 301 302 303 304 304 305 306 306 305 305 306 307 306 306 306 306 305 306 309 312 314 317 319 321 323 325 326 326 326 326 327 327 327 327 327 326 326 328 329 331 330 330 330 331 332 334 334 335
291 289 292 292 295 294 294 294 296 295 295 292 288 294 295 296 296 296 296 292 291 291 289 291 293 288 288 294 294 293 295 295 296 297 298 299 300 300 301 302 302 302 303 303 306 306 306 306 306 306 307 306 307 307 309 309 311 314 316 318 319 321 322 324 324 324 326 326 326 326 326 325 326 327 327 329 330 329 329 328 328 329 330 331 332 333
293 293 294 295 295 293 292 288 291 295 295 290 290 292 291 293 293 296 294 293 291 289 286 289 288 286 288 297 295 293 292 295 296 297 298 298 298 299 300 302 302 302 304 304 303 304 305 305 305 305 306 307 307 307 309 311 312 312 315 317 319 320 322 322 323 324 325 325 325 325 325 325 325 326 326 326 325 326 326 325 326 326 327 328 329 330
293 294 294 294 293 293 290 290 292 292 293 292 295 295 295 294 294 292 292 291 289 284 287 285 284 285 285 294 294 294 295 296 296 297 298 299 300 300 300 300 302 301 303 304 304 304 305 304 304 306 307 307 308 309 310 313 314 314 315 315 317 317 318 318 321 322 323 323 324 324 325 325 324 325 325 323 322 322 323 322 323 324 324 325 326 327
294 295 296 294 291 293 294 293 292 291 293 296 296 294 293 291 293 291 289 290 284 283 284 284 284 286 283 290 294 294 292 293 298 297 298 298 299 300 300 300 301 301 302 304 305 305 306 306 307 308 308 308 309 310 310 311 313 314 314 315 314 312 314 316 317 318 321 321 322 323 324 323 324 323 322 322 321 322 321 321 321 322 323 323 324 325
293 294 294 294 294 293 296 293 291 293 294 295 295 294 289 285 286 283 286 282 283 283 284 285 285 284 285 292 293 293 294 294 295 299 299 298 298 300 300 300 301 302 303 305 306 307 307 308 308 308 308 309 309 308 309 309 311 312 314 317 318 314 313 313 313 316 317 317 318 319 320 321 322 321 321 321 321 322 321 321 321 320 320 320 319 320
291 294 293 294 296 294 297 292 289 289 293 293 292 291 287 283 281 280 281 280 280 283 283 285 286 283 290 292 297 296 296 296 295 296 297 297 297 298 299 300 301 303 304 305 305 306 307 307 307 308 308 308 308 308 309 309 309 310 311 311 312 311 311 313 313 313 314 315 316 318 318 319 319 319 319 319 320 320 321 321 320 319 319 319 319 319
285 285 291 293 291 297 293 295 295 294 293 293 297 294 289 288 282 278 280 280 282 283 283 285 282 286 286 291 292 294 295 293 292 291 293 294 295 296 297 298 299 303 303 304 305 306 305 305 306 306 306 306 306 306 307 308 308 311 311 311 311 311 310 310 310 311 313 315 315 315 316 316 316 316 317 318 318 318 318 319 318 318 319 318 319 319
288 288 290 291 291 291 295 294 294 295 293 292 292 294 289 288 293 284 282 283 281 282 281 282 284 290 292 293 294 293 293 293 292 292 292 296 295 296 298 302 302 302 302 303 304 303 303 303 304 305 304 304 304 304 305 305 307 308 307 308 308 308 308 308 309 310 310 311 311 311 312 313 314 313 313 314 314 315 315 316 316 317 317 318 318 318
286 285 291 293 292 292 294 292 293 295 287 291 290 288 290 292 288 279 279 279 278 282 282 287 286 291 294 294 293 292 292 294 293 292 294 297 297 299 302 302 302 302 303 304 304 303 303 303 303 303 303 303 303 303 303 302 303 304 305 306 306 305 306 306 306 307 307 308 308 309 309 310 311 311 312 312 313 314 314 314 314 314 315 316 316 316
288 287 290 292 291 292 291 291 293 291 293 292 286 291 290 293 295 288 282 281 282 280 283 283 284 286 286 286 293 292 294 294 294 293 296 297 298 300 302 302 302 303 303 303 303 303 303 303 303 303 302 301 301 301 301 301 302 302 303 304 304 304 303 303 304 304 305 305 306 307 308 308 308 309 310 310 311 312 311 312 313 313 313 313 314 314
295 285 289 289 291 293 292 294 293 294 292 293 293 297 291 285 284 286 286 278 279 278 281 282 281 283 287 290 290 291 292 294 294 293 294 295 298 301 301 302 302 302 303 303 303 303 303 302 302 302 301 301 301 301 301 302 302 303 302 302 303 302 302 302 303 303 304 304 305 305 305 305 306 307 307 308 309 309 309 310 311 311 312 312 312 312
295 288 286 291 291 292 294 294 288 290 293 293 292 291 291 292 290 285 285 287 286 282 278 282 281 284 290 291 293 293 294 296 293 292 295 296 299 301 301 301 301 303 303 302 302 301 301 301 300 300 300 300 300 300 301 302 302 301 302 301 302 302 303 302 302 302 302 303 303 304 305 305 305 305 305 306 307 307 308 309 309 310 310 311 311 310
290 293 285 289 292 292 288 291 291 292 288 287 289 288 291 288 290 290 287 285 285 282 280 282 280 285 292 293 294 294 294 295 294 294 297 298 301 301 302 302 302 303 302 302 301 300 300 300 300 299 299 300 301 301 301 301 301 301 301 300 301 301 301 301 301 301 301 302 302 303 303 303 304 304 304 305 305 305 306 307 307 307 307 307 307 308
289 288 286 286 287 287 290 290 288 293 294 291 290 288 291 286 285 283 282 284 282 284 279 279 280 288 294 289 293 294 293 293 296 297 297 298 299 301 302 303 303 302 301 300 299 299 300 299 299 300 300 300 300 300 299 300 300 300 299 299 300 300 299 299 299 299 300 301 302 301 301 301 302 302 303 303 304 304 304 304 304 304 304 304 305 306
294 291 289 285 288 289 289 290 288 287 288 290 290 291 294 292 291 287 282 283 282 281 282 283 280 286 293 289 290 291 291 290 291 293 297 298 299 300 301 302 303 302 300 299 298 298 299 298 298 298 298 299 298 299 299 299 299 299 298 298 299 298 298 298 298 299 299 300 300 300 300 300 300 300 300 301 302 302 302 302 302 303 302 303 304 304
292 288 286 285 288 289 290 290 290 287 290 291 291 291 291 289 291 290 289 287 285 282 282 283 280 287 294 291 289 289 288 288 288 289 297 297 299 300 301 301 300 299 297 297 298 298 298 298 299 299 299 299 299 298 298 298 298 298 298 298 298 297 297 297 297 298 298 299 299 299 299 299 299 299 299 299 300 299 300 300 300 300 300 301 302 301
288 289 289 283 283 286 288 291 291 292 292 291 291 292 292 293 290 287 285 286 285 284 286 284 280 287 294 290 291 289 290 290 291 290 294 298 299 300 300 300 299 298 298 298 299 298 298 298 298 298 298 297 297 298 297 297 297 297 297 297 296 297 297 297 297 297 298 298 298 298 298 298 298 297 297 297 298 298 298 298 298 299 299 299 300 301
290 289 288 283 280 278 278 280 283 286 288 291 289 290 291 291 289 286 285 285 284 285 285 285 285 292 292 293 293 291 291 292 292 293 291 299 299 298 299 299 298 298 299 299 299 299 298 297 297 297 297 297 296 296 297 297 297 296 297 296 296 295 296 296 297 297 297 298 298 298 297 297 297 297 297 296 296 296 297 297 297 297 298 298 298 298
288 288 290 289 287 285 287 289 293 294 290 287 289 289 289 291 292 293 289 286 284 286 283 288 290 290 289 292 292 293 291 293 293 293 293 296 297 298 298 298 298 298 298 298 299 298 297 297 296 296 296 296 295 295 295 295 296 296 296 295 295 295 295 295 296 296 296 297 297 297 296 296 296 296 296 296 296 296 296 296 296 296 296 296 296 296
287 288 289 291 291 292 294 291 291 295 291 291 290 288 290 289 288 287 287 286 291 285 282 289 292 288 290 292 293 294 293 294 295 295 296 297 297 297 296 295 294 296 296 297 297 298 297 297 296 296 295 295 295 295 295 294 294 294 294 294 294 294 294 295 295 295 296 296 296 296 295 295 295 295 295 295 296 296 296 296 296 296 296 295 296 296
289 288 291 290 290 291 288 290 291 293 294 293 292 290 288 289 288 286 287 292 290 286 285 291 292 289 291 293 295 296 295 294 296 296 298 297 296 295 294 295 296 296 296 297 297 297 296 296 296 295 294 294 294 294 293 294 294 294 295 294 294 294 293 294 294 295 295 295 294 294 294 294 294 295 294 294 295 294 294 295 295 295 295 295 296 296
291 288 290 289 289 290 287 288 290 293 289 290 291 291 291 289 289 290 291 293 292 291 293 293 291 291 294 294 296 297 297 296 296 296 295 295 294 294 296 296 296 296 296 297 296 296 296 295 295 294 294 293 293 293 293 293 293 293 293 293 293 293 293 293 294 294 294 294 293 293 293 293 293 293 294 293 293 293 293 293 293 293 294 294 294 295
291 288 290 288 286 287 288 287 289 290 290 288 289 291 290 290 290 291 292 293 292 292 292 289 290 290 295 296 296 295 294 295 295 294 294 296 296 295 296 297 296 296 297 296 295 295 295 294 294 293 293 293 292 292 293 293 293 293 293 293 293 292 292 293 293 293 293 293 293 293 293 293 292 292 292 292 292 292 291 292 292 292 292 292 293 293
291 287 291 288 285 284 286 286 287 288 287 287 287 288 289 288 287 289 289 293 291 289 291 289 287 289 294 294 295 293 292 294 295 296 295 295 296 295 296 296 296 296 296 295 295 294 293 293 293 292 293 292 292 292 292 292 292 293 292 292 292 291 292 292 292 292 292 292 292 292 291 291 291 291 291 291 290 290 290 290 290 290 291 291 291 292
289 288 285 286 285 284 282 284 285 286 285 283 285 288 290 290 291 292 292 293 293 294 289 286 288 294 294 295 295 293 292 293 296 297 297 296 297 295 296 296 296 296 295 294 293 293 293 292 293 293 292 292 292 292 291 292 292 291 291 291 291 291 291 291 291 291 291 291 291 291 291 290 290 290 290 290 289 289 288 289 289 289 289 289 290 290
290 290 288 289 284 282 279 283 286 283 277 279 292 295 293 290 290 289 289 291 293 295 292 294 295 296 296 296 295 295 292 293 295 298 299 298 297 295 296 296 296 295 294 294 293 293 293 293 292 292 292 292 292 291 291 291 290 291 290 290 291 291 291 291 291 291 290 290 290 290 290 289 288 289 289 289 288 289 288 288 288 289 289 289 289 289
287 289 288 286 285 281 280 282 281 276 279 291 293 297 295 294 293 292 293 293 293 294 295 294 295 293 295 297 297 297 297 295 295 295 296 296 299 297 295 294 294 293 293 292 292 292 292 292 292 292 291 291 290 291 291 291 290 290 290 290 290 290 290 290 290 289 289 289 289 289 288 288 288 288 288 288 287 287 287 287 287 287 288 288 288 288
288 288 288 285 286 283 280 282 276 278 287 290 293 289 293 294 293 292 290 293 293 293 294 293 295 296 295 296 296 297 296 293 293 292 293 292 296 298 295 294 294 293 292 292 292 292 292 292 292 291 290 290 290 290 290 290 290 290 289 290 289 289 289 289 289 288 288 288 288 288 288 287 287 287 287 286 286 286 286 286 286 286 287 287 288 288
293 289 289 285 287 281 282 282 282 287 286 289 290 289 290 288 288 289 285 289 293 293 294 293 294 296 295 295 296 294 293 294 294 296 292 292 293 295 296 294 294 293 293 293 293 292 292 292 291 290 290 289 289 289 289 289 289 289 289 288 288 288 288 288 287 287 287 286 287 286 286 286 286 285 285 285 285 285 285 285 285 286 287 286 286 287
294 289 291 287 284 287 283 280 281 281 279 285 294 293 294 295 295 295 291 289 297 295 295 295 294 295 296 294 293 292 294 293 292 295 294 291 292 292 293 293 293 293 292 292 292 291 291 290 290 289 289 288 288 287 288 288 288 288 287 287 287 287 287 286 285 286 285 285 286 286 286 285 285 284 284 284 284 284 284 285 285 285 286 285 285 285
293 295 289 288 287 285 283 281 280 278 282 291 292 294 295 295 297 295 289 286 295 296 296 295 295 296 295 294 293 292 292 289 291 296 293 291 291 292 291 291 292 292 291 291 291 290 289 289 288 288 287 287 286 286 287 287 287 287 286 286 286 286 285 284 284 284 284 284 285 285 284 284 284 283 283 283 283 283 283 283 284 285 285 285 285 285
288 289 289 286 285 286 284 282 280 284 284 291 293 293 294 294 298 292 282 284 296 294 296 295 295 295 295 294 293 293 292 290 292 297 292 291 292 292 291 290 290 289 289 289 289 289 288 288 287 286 285 284 284 285 285 285 286 285 284 284 285 284 283 283 283 284 284 284 284 284 283 283 283 282 282 281 282 282 283 283 284 284 284 284 284 285
287 286 287 284 285 286 285 284 286 287 290 293 292 291 291 296 295 286 281 290 293 295 295 295 294 296 295 293 293 291 295 296 296 293 292 291 291 290 291 291 290 289 288 287 286 287 287 286 285 284 284 284 284 284 284 284 284 283 283 283 283 282 281 282 283 283 283 283 283 282 282 282 282 281 281 281 281 282 282 283 283 283 283 283 284 284
286 287 286 287 285 284 286 284 284 288 291 291 289 291 294 292 285 285 293 289 294 293 292 294 295 295 295 294 293 296 293 289 292 292 290 290 290 289 289 288 287 286 285 285 285 285 285 284 284 283 282 282 282 282 281 281 281 281 281 281 281 280 280 281 281 281 281 281 281 281 280 280 280 280 280 280 281 280 281 282 282 282 282 283 283 282
286 285 283 284 287 287 286 284 283 279 288 291 291 290 292 288 291 296 291 287 289 291 292 291 294 294 295 293 294 290 288 290 290 290 290 290 289 288 288 287 287 286 285 284 283 282 283 283 282 281 281 280 280 279 278 278 277 278 279 278 279 278 279 279 280 280 279 279 279 279 278 279 279 278 279 279 280 280 280 281 282 282 282 282 282 282
290 285 285 286 290 283 284 281 282 289 291 294 295 291 291 295 295 292 295 291 289 290 292 292 292 293 294 294 290 289 289 289 289 289 289 289 288 288 287 286 285 284 283 281 280 280 281 281 281 280 279 279 278 277 276 275 274 275 275 276 277 277 278 278 278 278 277 277 277 277 277 277 277 278 278 279 279 279 279 280 280 281 282 282 282 282
291 289 289 287 291 288 287 289 291 289 292 294 292 292 295 294 289 291 293 295 292 291 290 292 292 291 293 292 290 289 288 289 289 289 288 288 287 286 285 285 284 283 281 279 278 278 279 279 279 278 277 277 276 275 274 273 272 272 273 274 275 276 277 277 277 276 276 275 275 276 276 277 277 277 278 278 278 278 278 279 280 279 281 281 281 282
285 288 286 288 289 288 288 289 289 288 290 292 290 289 289 290 289 289 291 291 292 293 290 292 291 290 290 291 289 288 289 289 288 288 287 287 286 284 283 282 281 280 278 278 277 276 277 277 276 276 275 274 274 273 272 271 271 270 272 273 274 276 277 276 274 274 274 274 274 275 275 275 276 277 277 277 278 278 278 278 278 279 279 280 281 281
286 286 287 288 287 288 286 289 288 290 288 290 291 288 286 286 289 289 290 292 291 290 289 290 290 290 290 290 290 289 288 289 288 287 285 284 283 283 282 280 279 278 276 275 275 275 275 274 273 273 272 272 272 271 270 270 270 271 272 273 275 276 274 272 272 273 273 273 274 274 275 275 275 275 275 276 276 277 277 277 278 278 278 279 280 280
286 290 289 287 287 288 289 287 286 285 285 286 287 290 292 291 288 287 288 289 289 289 289 289 290 290 291 290 290 289 288 288 287 285 284 283 282 281 280 278 276 275 274 274 273 272 272 271 270 270 270 270 270 269 268 269 270 271 273 274 273 271 271 271 272 272 273 273 273 274 275 274 274 274 274 275 275 275 275 276 277 277 277 278 279 279
288 290 286 287 287 288 287 286 286 287 288 288 287 287 290 291 289 286 286 287 287 287 287 287 289 290 291 291 290 289 287 287 286 285 284 282 281 279 278 276 275 274 273 272 271 270 270 269 268 268 268 268 269 267 267 268 270 272 273 270 270 270 269 270 271 272 272 273 273 273 274 274 273 273 273 273 274 274 275 275 275 276 277 278 279 279
286 286 286 286 283 284 287 289 288 287 288 292 289 290 290 286 287 286 285 286 287 286 286 285 284 285 288 289 289 288 286 285 284 284 282 281 279 277 275 274 273 272 271 270 269 268 267 267 266 266 265 267 267 267 267 268 270 271 269 268 268 269 269 270 270 271 271 272 273 273 273 272 272 273 273 272 272 273 273 276 277 277 276 276 279 280
287 287 287 286 286 285 291 291 291 293 293 293 295 292 288 286 287 286 286 286 286 287 286 285 283 283 284 283 284 286 284 283 282 282 279 277 275 274 273 272 271 270 269 268 266 266 265 265 265 264 264 265 266 266 267 269 269 267 267 267 268 268 268 268 268 269 271 271 271 271 271 271 271 271 272 272 272 272 272 272 274 277 278 278 278 279
Wind_Speed
2 9 10 10 10 9 9 1 3 3 5 8 6 5 6 7 3 4 2 3 2 2 8 6 8 10 12 11 11 5 3 6 8 9 8 7 7 7 6 7 6 7 8 3 3 2 3 3 4 4 5 6 8 9 10 10 12 12 11 11 14 12 12 12 11 11 12 12 11 10 13 12 10 10 7 7 6 7 9 10 10 9 8 8 7 8
3 8 8 5 6 10 7 7 9 9 8 13 8 7 4 3 4 2 3 2 2 3 1 1 5 12 13 12 11 6 4 9 10 9 9 9 7 6 7 7 6 6 3 4 5 4 3 3 2 2 3 5 8 8 9 11 12 11 12 12 12 10 11 13 13 12 12 12 11 11 10 10 10 10 10 9 7 9 9 11 11 11 12 11 8 8
6 9 5 4 6 10 7 4 3 10 9 4 7 4 4 3 3 3 2 1 2 1 3 2 5 10 11 10 10 9 9 7 5 4 5 4 6 5 5 5 6 6 6 4 6 4 4 2 2 2 3 4 6 5 8 9 9 10 11 11 11 10 11 11 13 12 13 12 11 10 10 9 8 8 9 9 8 8 9 10 11 12 10 12 13 13
6 7 4 6 7 10 5 3 10 9 6 7 5 6 7 4 6 5 4 3 1 2 2 1 5 9 10 8 10 7 5 4 3 5 8 7 9 9 7 4 6 9 7 8 7 5 3 3 3 3 3 4 4 5 6 6 8 8 9 10 10 10 11 10 11 12 13 12 11 11 11 9 9 7 5 9 10 11 10 10 8 6 9 12 11 14
3 4 3 7 6 11 9 5 9 7 6 2 2 4 5 5 3 2 5 3 2 1 1 3 5 9 5 6 5 3 1 3 2 4 5 5 6 7 7 6 7 9 8 7 6 4 3 2 3 3 3 2 4 5 6 6 7 6 9 9 10 9 10 10 10 12 12 10 10 9 7 5 5 2 5 5 4 7 9 9 10 11 9 8 7 7
2 2 0 6 4 4 10 6 6 7 4 3 4 3 3 8 9 4 8 8 4 4 3 2 3 3 1 3 5 0 1 3 1 2 1 1 1 2 3 3 3 4 5 7 7 5 4 4 3 2 2 3 4 4 4 4 6 7 7 8 9 8 8 9 10 10 10 10 10 9 9 7 9 10 9 11 11 9 8 8 7 9 9 12 11 9
2 1 3 8 9 6 5 6 4 3 5 4 4 4 3 8 9 10 8 4 4 3 2 2 6 2 1 3 3 1 3 3 1 1 2 2 2 2 2 3 3 3 2 2 4 3 2 0 1 1 1 0 1 1 1 3 5 6 6 6 7 7 6 6 7 9 9 10 10 12 11 11 10 10 9 9 10 10 10 10 11 11 8 8 9 9
4 4 3 1 8 9 7 6 6 6 6 6 3 3 7 10 10 9 9 2 2 3 1 0 2 4 4 4 3 0 4 1 3 3 3 3 3 3 3 3 3 3 2 2 2 2 1 1 1 2 1 1 1 0 2 3 3 6 6 6 7 6 5 5 6 9 10 9 10 11 11 10 11 12 11 9 10 10 10 10 11 9 9 10 10 10
5 7 5 9 5 6 9 1 5 3 4 0 0 1 5 5 6 6 3 3 2 1 3 2 3 2 5 3 2 1 3 6 3 3 3 3 3 3 3 4 3 3 3 2 2 3 2 2 2 1 2 2 2 2 1 1 1 2 3 5 5 5 5 5 7 8 10 9 9 9 9 10 10 10 10 8 6 8 8 11 11 10 10 10 9 9
2 3 4 1 9 8 3 2 1 0 4 0 5 7 7 6 7 3 3 4 1 2 4 5 3 3 8 2 3 1 3 7 4 4 4 2 2 2 3 4 3 3 2 1 1 1 2 2 3 2 2 4 4 2 2 2 2 2 2 2 3 3 3 4 7 8 9 10 8 9 10 11 10 9 8 7 9 8 8 10 11 10 9 9 10 9
1 2 3 1 1 3 6 6 2 3 5 12 7 11 7 7 3 3 4 1 1 3 3 5 2 2 3 2 4 4 4 1 7 5 3 3 3 4 3 3 3 3 2 2 2 2 3 2 2 2 5 5 4 3 4 4 3 4 4 4 4 3 2 3 5 7 8 8 8 8 9 10 10 9 8 8 6 5 6 7 8 9 9 8 9 8
4 2 2 2 1 4 2 8 9 4 7 6 4 7 9 5 1 3 2 1 2 3 4 3 2 3 5 2 1 1 2 1 5 9 7 6 5 4 4 4 3 2 2 2 3 5 5 6 5 5 7 6 5 5 5 4 4 4 4 4 5 3 2 2 2 4 5 5 7 7 8 8 8 8 7 9 9 9 10 10 10 8 9 9 9 9
5 3 2 3 2 1 5 12 5 1 2 2 7 9 7 3 1 3 2 4 7 3 2 3 1 2 11 7 4 1 2 2 4 4 7 5 5 4 4 4 3 2 2 4 5 6 6 6 6 7 7 7 7 6 6 5 4 4 4 3 5 4 3 3 2 3 4 4 5 6 7 7 7 7 8 8 9 9 9 9 9 9 9 7 8 8
2 4 0 2 2 4 4 10 6 4 4 6 11 9 6 4 4 5 2 2 4 1 1 2 1 5 3 7 10 12 6 3 3 2 2 2 2 3 4 3 2 2 2 3 4 5 5 5 6 6 7 7 6 6 5 4 4 3 3 3 5 4 2 3 3 3 3 4 4 4 5 5 6 7 7 8 8 8 8 8 9 9 9 9 9 9
6 3 7 9 5 4 2 2 6 5 12 6 4 5 3 4 4 4 3 5 2 1 2 1 1 3 4 2 4 1 4 2 2 2 1 3 2 3 3 3 2 3 3 2 3 4 5 5 5 5 5 6 6 6 6 5 5 4 4 4 5 5 4 3 2 1 1 1 2 3 4 5 5 6 6 7 7 7 8 8 9 8 8 9 8 8
2 2 3 4 2 2 5 2 2 9 6 2 1 3 1 3 1 1 1 1 2 2 2 2 4 3 3 3 2 0 3 2 3 2 2 2 2 1 2 3 4 3 4 2 4 5 5 4 4 4 5 5 4 5 5 6 5 5 5 5 6 6 6 6 5 4 3 2 2 1 3 4 4 5 5 6 6 6 7 8 8 8 8 8 8 8
2 3 4 2 1 1 1 2 1 2 7 5 4 4 1 4 8 6 2 1 1 1 3 2 4 4 5 7 3 1 3 2 5 4 4 4 5 5 6 5 5 4 4 3 4 4 5 4 5 5 5 4 5 5 6 5 5 5 4 5 6 6 5 5 5 4 4 3 3 2 3 3 3 4 5 5 5 5 6 6 7 7 8 8 8 8
5 4 3 1 3 3 1 2 2 6 3 7 4 6 4 1 1 1 2 1 0 2 1 3 5 3 2 4 3 4 6 4 5 7 7 6 7 9 7 6 6 6 5 5 5 5 6 6 7 6 6 6 6 5 6 6 4 4 4 4 5 5 6 5 4 4 3 3 3 3 3 2 3 3 4 4 5 4 4 5 5 6 6 7 7 7
3 5 1 2 1 2 1 2 4 2 2 2 1 5 4 3 4 0 2 1 3 2 2 3 2 4 6 5 3 5 10 9 7 6 7 9 9 10 9 8 6 5 5 5 5 5 5 6 6 6 7 6 6 6 5 4 4 4 5 4 5 6 4 3 3 2 2 2 1 1 3 3 3 2 3 3 4 3 4 4 5 5 6 5 6 6
2 3 1 2 1 0 2 2 7 4 2 4 2 3 3 2 1 5 3 0 1 3 1 2 3 4 7 6 5 8 12 12 9 8 11 12 13 11 9 9 7 6 6 5 5 5 5 6 6 6 6 6 6 6 5 5 5 6 5 5 5 4 4 4 5 4 4 3 3 3 3 3 3 3 3 3 3 3 3 4 4 5 6 5 5 5
3 2 3 2 2 1 5 5 8 10 8 4 4 5 2 1 2 2 2 2 2 2 3 1 2 4 4 6 6 1 6 6 11 11 10 11 12 10 10 9 8 7 6 5 5 4 4 5 5 6 5 5 4 5 5 5 6 6 5 6 6 6 6 7 6 6 5 4 5 6 6 6 5 5 3 3 3 3 3 4 4 4 5 5 5 5
3 0 5 5 3 7 1 4 3 3 1 4 7 10 10 8 5 5 5 3 0 2 3 3 5 0 2 2 6 6 3 4 8 11 11 9 10 9 8 7 8 8 6 6 4 4 3 4 5 5 5 4 5 6 7 6 6 8 8 6 6 6 7 7 7 6 6 5 4 6 5 5 5 5 5 5 4 4 4 4 4 4 4 5 5 4
3 3 6 5 3 2 2 2 1 2 2 1 1 3 3 1 1 4 7 4 2 1 4 0 2 3 3 1 1 1 0 0 1 2 7 9 10 10 8 8 5 6 7 5 5 4 4 4 4 4 5 6 6 6 6 6 6 6 6 6 6 7 7 6 5 5 5 5 6 7 6 7 7 7 7 6 6 6 6 5 5 5 5 5 5 4
2 4 4 3 2 2 2 3 2 1 1 2 3 0 4 9 8 3 1 4 5 4 2 1 2 3 1 1 2 2 1 1 2 3 7 9 9 8 10 8 7 7 6 5 4 4 4 4 3 3 5 6 6 7 6 5 5 5 6 6 6 8 7 6 6 5 5 5 6 7 6 6 5 5 5 5 5 6 6 6 5 5 5 5 5 6
4 3 7 4 2 1 1 1 1 1 1 5 6 5 3 4 7 3 3 1 1 7 7 5 6 5 3 1 0 1 2 3 5 6 6 12 9 8 9 6 5 6 6 6 6 5 5 4 5 5 5 5 4 4 5 5 5 5 5 5 5 5 4 4 3 4 4 4 5 5 4 4 3 4 5 5 5 6 6 5 5 4 5 5 5 5
4 5 8 6 6 7 6 7 9 8 12 5 1 2 7 10 9 6 5 4 5 3 9 5 9 1 2 1 2 2 3 3 3 3 2 2 7 8 6 6 5 5 6 6 6 5 5 5 4 4 4 4 4 4 4 4 3 3 4 6 6 7 7 6 4 5 5 5 5 5 6 6 6 6 6 6 6 6 5 5 5 5 4 5 6 5
2 0 8 11 12 9 11 12 1 7 6 6 12 15 11 9 7 2 3 2 8 4 6 9 8 1 5 6 5 5 4 8 7 6 9 9 7 3 4 5 5 6 6 6 6 5 5 5 5 5 4 4 4 4 4 4 5 5 6 8 8 6 5 5 5 6 6 6 6 6 7 7 7 6 6 6 6 5 5 4 4 4 5 4 4 5
2 4 7 9 13 12 3 4 5 9 12 14 12 9 10 11 10 8 10 10 6 7 8 10 10 8 10 8 6 6 6 5 7 9 10 7 8 8 6 5 6 5 5 5 5 5 5 4 4 4 4 4 4 4 4 4 5 5 6 6 6 5 5 4 5 6 6 6 6 7 7 6 6 6 6 6 5 5 5 5 5 5 5 4 5 5
6 8 7 7 11 4 3 5 7 7 8 8 10 9 12 13 13 14 14 13 11 11 13 12 10 12 8 8 9 8 10 12 14 14 10 8 6 5 6 7 7 7 7 7 6 5 5 5 4 4 4 4 4 4 4 4 4 4 5 5 5 5 5 5 5 6 6 6 7 7 6 6 6 5 6 7 7 7 8 7 7 7 6 5 5 4
6 7 7 8 12 6 2 3 3 9 5 5 9 13 13 12 15 17 17 13 14 13 12 4 12 16 8 9 9 7 4 2 3 5 5 8 9 7 7 8 9 8 8 8 7 6 5 5 4 3 3 3 3 3 2 2 3 4 5 5 5 5 6 6 6 6 7 7 7 7 7 6 6 6 6 7 7 8 8 7 8 7 7 7 6 6
6 4 9 8 6 6 4 2 2 2 7 7 4 6 11 13 14 16 16 15 11 10 3 2 2 8 4 1 1 3 4 5 5 7 9 8 7 9 9 9 8 8 8 7 7 7 6 5 4 4 3 2 1 1 2 1 2 3 4 4 4 5 4 4 4 4 5 5 5 6 6 6 6 6 7 7 7 8 8 8 8 8 8 8 8 8
3 1 3 4 6 4 2 5 4 3 2 2 5 8 12 14 15 14 13 12 10 11 9 4 7 13 7 7 3 3 5 9 11 12 10 8 9 8 9 8 9 10 9 9 8 7 6 6 5 4 3 3 3 3 1 2 3 3 4 4 5 4 4 4 4 5 5 5 5 6 7 6 7 7 7 7 8 8 8 8 6 6 8 8 7 7
6 5 4 5 7 4 3 1 5 4 2 3 8 14 19 18 14 11 2 2 13 16 12 7 17 8 10 13 11 7 9 9 10 10 9 7 7 8 10 10 9 8 9 9 9 8 7 6 6 5 5 4 3 1 3 3 4 5 4 5 4 3 4 4 4 4 5 5 5 6 6 7 7 7 6 7 7 7 6 5 5 5 5 6 6 6
5 7 3 3 6 2 3 4 4 5 8 11 11 14 13 16 17 11 10 13 13 11 10 13 9 7 12 10 12 11 10 10 13 13 11 11 11 10 8 7 8 8 8 7 8 8 8 6 5 5 4 4 3 3 3 4 5 3 3 2 2 3 3 3 3 3 4 4 5 5 6 6 5 7 7 7 5 7 6 5 6 6 6 5 5 6
7 5 3 1 2 2 2 3 6 10 12 8 3 6 16 13 10 13 15 18 15 13 12 12 9 6 11 10 13 13 11 4 3 8 8 6 7 8 9 9 9 10 10 10 9 8 7 7 7 6 4 3 3 4 4 5 4 3 3 3 3 3 3 4 3 4 4 5 5 5 6 7 7 7 7 7 5 6 5 6 6 6 5 5 5 6
7 8 3 1 3 4 2 5 7 9 2 1 2 3 3 6 9 12 13 9 7 12 13 14 15 11 10 10 9 3 3 4 2 1 1 1 3 8 11 10 12 11 11 9 10 9 8 7 6 5 5 3 4 5 5 5 4 4 4 3 4 3 4 3 3 4 5 5 5 6 6 6 7 7 7 8 6 6 7 6 6 7 7 6 6 5
8 3 4 4 3 5 5 9 4 7 7 3 5 5 11 11 10 12 8 12 14 11 14 16 17 10 7 7 5 2 3 3 1 4 2 3 4 4 8 11 13 11 11 9 8 8 6 6 6 5 5 6 7 6 6 4 4 3 3 4 3 3 4 4 5 6 6 6 6 6 7 7 7 7 7 7 8 8 7 8 8 7 6 7 6 6
6 9 5 7 4 2 3 3 1 4 10 12 3 3 4 6 13 15 12 10 7 14 15 15 15 14 10 6 6 4 4 4 6 8 7 5 5 8 7 10 10 10 9 9 7 6 6 5 6 6 7 7 7 7 5 5 4 3 4 5 4 4 5 5 7 6 7 7 7 7 7 7 7 7 8 8 8 9 8 8 7 6 6 7 9 9
4 3 1 5 3 4 4 6 7 8 12 2 6 9 8 4 8 6 3 10 8 12 12 15 15 9 12 12 10 8 7 7 11 8 8 9 9 9 13 11 11 9 9 8 8 9 7 6 8 7 7 8 8 7 6 5 4 4 4 5 5 5 6 7 7 8 8 8 8 8 6 7 7 8 8 8 9 8 9 9 9 8 7 7 8 9
4 2 3 5 3 5 7 8 8 4 5 3 7 4 8 9 10 8 5 8 2 9 11 13 13 12 14 16 12 11 11 9 13 6 11 12 11 10 12 14 12 11 9 7 6 7 8 7 8 8 8 7 6 5 5 4 3 3 5 5 5 6 7 8 8 8 8 8 8 7 8 8 8 8 9 10 9 9 8 8 8 7 8 8 7 8
4 1 4 12 9 8 8 5 4 5 2 4 6 5 7 10 12 9 13 4 8 11 12 13 15 18 15 10 11 9 12 5 4 12 15 14 13 10 8 9 10 9 9 8 7 7 7 7 7 7 7 6 5 5 5 4 4 5 5 5 5 7 7 8 8 9 9 9 9 8 8 8 8 10 9 8 9 9 8 7 8 9 7 9 8 8
6 5 3 5 10 9 8 9 8 5 3 5 3 7 9 7 8 13 6 1 9 6 3 8 12 8 9 14 11 9 4 4 8 12 14 12 12 12 11 11 11 10 8 8 7 6 6 6 7 7 7 7 6 6 6 5 5 5 6 6 7 8 8 8 8 8 9 9 8 9 9 9 8 8 8 8 8 9 10 8 8 8 7 8 8 11
10 9 8 10 6 2 2 5 4 10 4 10 12 3 3 5 4 4 4 0 1 2 6 5 6 7 9 10 6 6 8 9 13 13 12 13 13 13 12 11 10 9 8 7 7 6 4 6 6 7 7 6 7 7 7 7 7 6 5 6 7 7 8 8 8 8 8 9 9 9 9 8 9 9 8 8 9 9 10 9 8 10 8 8 9 10
6 6 4 6 9 9 11 11 8 3 7 12 16 9 9 11 2 3 5 3 1 2 4 4 4 6 8 12 11 7 9 12 10 13 13 11 11 10 9 9 9 9 9 8 7 5 5 6 6 6 6 6 6 7 7 7 6 6 6 6 7 7 7 7 7 8 8 8 8 9 8 9 9 9 8 8 9 9 9 10 9 9 8 7 8 8
8 9 4 7 6 8 7 8 2 2 10 5 3 4 4 2 4 2 0 1 6 5 3 2 6 5 6 10 9 11 10 10 14 13 15 12 11 11 11 9 8 8 7 7 6 5 5 5 5 5 6 6 7 6 6 6 6 6 5 6 7 7 7 7 8 8 8 8 8 8 9 9 9 9 8 8 9 9 9 10 9 9 8 7 8 8
4 1 0 2 3 1 4 1 2 2 2 5 1 1 3 3 2 1 3 2 5 3 6 5 5 7 7 9 12 6 10 12 14 11 10 11 11 10 10 10 8 8 8 7 6 5 4 4 5 5 5 5 6 6 6 6 6 5 5 7 6 6 7 8 9 9 9 9 8 9 10 11 10 8 9 10 8 8 8 9 10 9 10 9 8 8
1 2 1 2 0 7 8 8 6 2 2 3 4 0 2 2 2 0 2 3 1 3 3 1 5 8 11 9 10 13 12 12 12 10 10 10 10 10 9 9 7 6 6 7 5 3 3 3 3 5 5 5 6 6 6 6 5 5 5 6 6 8 10 10 9 9 9 9 9 9 9 10 9 10 10 8 8 8 8 8 8 9 10 9 9 9
3 5 3 3 4 9 4 1 1 2 4 3 2 3 4 4 3 1 1 1 3 3 3 5 6 8 8 8 10 14 13 12 14 13 10 9 9 9 8 8 8 7 6 6 5 4 4 5 6 6 7 5 6 6 6 6 5 5 6 6 8 8 8 8 8 8 9 10 9 8 9 9 12 11 10 10 9 10 10 8 8 9 10 10 9 9
0 7 4 5 5 2 4 3 1 1 3 5 6 7 6 2 3 2 2 4 5 8 7 6 2 5 7 10 12 13 14 9 8 12 12 10 9 8 7 7 7 7 6 6 5 6 6 6 6 5 5 4 5 5 5 5 5 5 7 8 8 7 8 8 9 8 9 9 8 8 8 9 9 9 10 11 10 9 9 10 10 11 13 12 10 10
2 6 2 3 2 3 9 6 7 2 3 5 10 14 11 5 4 5 5 5 6 9 8 10 6 4 5 5 8 12 15 12 10 10 10 8 8 9 8 8 7 7 7 6 6 6 6 6 5 4 3 3 4 4 4 5 4 6 7 7 7 8 8 9 8 8 8 7 8 7 9 9 9 9 9 10 11 12 13 13 16 14 13 15 17 19
7 5 5 5 6 6 7 4 8 8 4 4 4 5 8 8 7 8 9 10 7 5 8 13 11 7 7 5 2 7 11 12 12 10 10 8 7 7 7 8 8 6 6 6 6 6 5 3 3 1 2 2 2 3 3 3 5 6 6 7 7 8 8 9 7 7 7 7 7 9 10 10 9 9 9 10 11 11 13 15 15 16 20 22 25 27
Wind_Direction
318 162 181 185 174 176 185 2 48 109 145 102 96 113 165 172 118 46 80 40 292 243 231 238 258 272 273 269 273 258 172 262 267 263 257 254 251 249 244 240 241 239 247 47 329 291 275 267 248 237 231 225 220 218 214 208 211 211 210 208 219 217 221 222 221 221 221 222 222 228 233 235 234 231 220 219 215 213 213 207 211 209 222 230 213 208
223 186 198 171 155 168 123 116 110 88 130 151 150 154 143 217 170 83 104 40 24 257 161 85 270 265 265 268 268 256 167 242 242 247 247 251 247 248 250 258 254 261 290 278 263 237 230 249 236 228 226 220 218 217 210 213 212 210 209 212 214 209 214 222 224 223 222 223 221 221 227 232 236 232 224 225 212 216 222 224 214 213 217 218 216 216
194 205 154 100 94 90 98 101 84 125 128 120 157 154 127 180 65 127 101 83 49 221 246 96 274 268 265 264 261 247 239 235 228 256 273 291 276 260 250 258 266 269 271 258 256 233 242 216 253 247 235 231 234 226 211 215 210 208 208 213 210 211 210 216 223 224 226 224 223 225 233 231 235 232 236 229 217 213 221 218 211 207 201 210 217 215
190 213 99 127 135 116 89 124 109 96 93 142 122 151 190 134 176 190 145 142 78 313 352 247 283 277 269 251 248 255 260 279 312 288 269 257 262 267 275 302 297 284 280 270 265 260 235 256 248 225 234 233 232 229 227 212 209 210 213 212 209 210 211 214 218 224 228 226 225 227 236 236 240 241 223 235 234 237 231 234 238 237 224 209 204 206
163 28 11 155 175 150 139 155 149 159 158 331 188 151 125 154 225 344 139 141 127 139 246 239 254 266 226 248 221 125 252 277 259 266 238 244 249 271 283 274 247 264 274 277 273 263 264 264 248 242 231 225 234 228 223 210 208 210 213 210 205 208 209 212 213 218 224 227 226 230 239 245 241 234 235 231 239 229 235 238 228 228 228 237 228 216
94 28 197 132 139 123 131 160 185 166 169 161 251 219 146 170 144 100 116 148 184 195 66 348 273 246 152 237 252 49 292 195 119 322 113 1 284 262 274 291 291 253 253 263 279 291 301 291 289 254 225 216 222 227 220 222 218 217 216 212 209 212 212 210 209 210 214 220 222 217 219 211 211 228 226 229 235 236 232 237 241 241 227 222 226 213
57 111 248 155 150 140 155 163 207 238 163 178 186 161 142 142 128 136 148 193 180 214 84 311 239 258 138 273 158 51 300 295 97 85 51 32 17 359 347 334 329 322 297 250 258 271 288 281 237 175 121 136 201 169 191 220 220 218 222 215 212 214 215 208 207 203 212 217 221 221 222 224 228 232 236 235 238 242 246 245 244 244 242 245 243 233
125 130 156 189 142 153 147 182 196 193 134 198 37 129 121 130 136 157 152 233 51 41 119 319 358 270 286 252 75 251 274 260 135 92 79 66 46 28 15 10 354 357 347 348 28 42 25 18 345 69 62 75 34 337 204 201 199 205 209 208 207 211 211 198 201 206 210 213 216 220 225 228 232 233 242 241 240 242 247 250 248 249 250 238 232 242
143 148 189 155 169 160 183 135 119 221 173 122 239 318 122 119 115 133 140 99 47 279 210 126 331 261 243 249 130 308 244 148 134 112 97 81 54 48 44 40 29 18 4 336 17 45 45 58 57 51 72 47 52 47 53 101 145 184 194 196 198 205 204 199 199 205 207 214 217 218 224 231 233 239 243 245 250 248 244 250 255 256 258 254 242 241
326 210 193 229 165 179 53 5 37 67 133 219 139 93 100 89 70 59 107 99 128 220 244 148 348 245 268 195 225 69 293 249 164 139 110 60 45 15 35 43 44 51 47 30 343 355 43 53 56 48 76 68 47 39 48 71 91 87 119 163 175 181 195 192 200 205 207 211 213 217 221 226 233 233 240 248 250 247 251 254 256 259 259 258 257 248
295 17 278 26 273 54 121 52 21 19 69 133 182 105 78 53 57 62 49 53 140 239 231 47 6 303 297 220 228 189 211 246 134 131 125 115 106 81 55 40 31 32 44 50 68 66 75 49 77 76 79 79 71 56 60 63 71 101 119 136 143 146 158 178 196 201 205 209 213 221 228 234 239 245 250 248 245 245 246 251 255 256 258 258 257 253
94 135 146 57 343 135 116 84 38 68 111 152 139 126 107 59 72 89 69 335 212 233 76 4 8 300 213 255 257 291 6 291 140 143 131 117 93 68 50 46 36 30 44 82 101 102 112 110 96 97 85 79 77 76 66 62 62 74 89 113 115 109 122 140 171 205 207 211 220 230 237 241 246 249 252 253 255 253 255 254 256 255 256 254 254 256
105 99 47 51 269 220 145 98 76 73 266 179 140 151 148 138 143 179 176 211 208 231 51 355 279 214 237 257 357 346 211 216 259 113 121 113 103 81 66 48 35 20 65 94 98 101 91 87 92 87 87 81 65 61 56 52 54 60 74 98 115 110 126 143 155 183 198 212 221 227 235 241 247 248 246 250 254 254 255 257 256 254 251 246 249 246
109 139 130 87 176 235 243 136 140 157 204 172 163 160 152 158 174 209 174 352 331 11 20 64 23 266 328 279 247 237 218 196 193 263 15 11 41 58 49 32 44 48 56 74 85 80 84 83 79 73 72 70 67 63 67 72 77 90 92 86 100 95 88 131 155 170 201 218 229 234 240 246 249 251 254 254 259 259 259 261 264 263 263 263 257 258
145 226 199 166 177 133 229 282 173 163 166 196 12 180 197 154 159 187 169 200 214 114 114 206 194 230 167 168 34 352 64 72 42 37 318 289 310 327 329 302 293 115 84 77 76 77 82 74 65 68 63 59 52 46 40 38 36 49 59 57 71 87 77 69 76 129 206 227 235 237 250 253 255 258 259 259 261 265 262 262 264 266 265 266 270 268
242 58 36 357 308 338 180 300 350 96 59 34 240 27 157 210 37 190 62 354 125 142 148 193 235 317 254 50 262 270 295 250 151 139 243 240 135 108 166 140 126 108 112 94 95 83 65 62 59 64 66 60 58 53 51 45 31 39 36 38 41 36 23 23 24 30 17 14 360 323 274 266 257 258 262 263 261 262 264 265 264 265 264 266 271 275
51 189 358 325 104 24 15 310 354 279 181 180 144 201 140 21 101 115 99 70 328 338 241 126 270 249 277 265 183 127 164 184 119 142 193 157 126 152 142 142 142 139 142 134 111 109 108 94 72 67 63 65 62 61 60 56 48 49 48 52 57 50 41 34 25 19 12 2 344 335 314 290 270 252 250 256 259 262 265 265 265 264 267 271 270 271
165 121 13 353 137 33 346 334 60 49 321 106 217 172 123 232 78 147 189 64 5 235 233 123 225 233 135 223 97 131 164 178 153 153 175 136 140 153 150 155 154 148 132 123 106 97 93 86 83 80 71 63 66 71 76 74 69 64 60 66 77 61 55 40 31 29 22 8 357 344 328 314 296 293 285 280 285 284 280 272 269 269 270 272 274 274
129 105 106 344 9 346 105 264 87 56 23 300 30 136 162 162 200 71 131 183 167 218 241 198 293 286 227 218 127 177 179 181 173 153 162 151 162 158 159 155 148 146 134 109 90 78 65 61 61 64 74 70 72 75 81 96 95 87 81 77 79 79 76 66 45 48 62 33 17 347 342 334 328 317 303 296 291 284 270 271 275 277 280 282 283 284
7 131 108 39 122 160 326 243 189 165 38 63 153 119 340 291 302 159 208 33 212 227 105 243 117 246 184 222 212 192 190 175 151 159 178 165 167 164 159 156 153 139 117 104 85 67 61 55 51 52 57 60 60 68 73 81 87 73 70 68 67 71 71 62 45 38 42 35 30 13 6 18 359 349 333 323 320 306 302 303 300 298 293 294 301 293
137 319 145 117 302 195 179 208 213 169 161 121 171 167 144 49 324 357 45 188 218 190 198 263 241 229 210 217 218 154 177 161 161 175 177 170 164 159 154 152 146 132 119 104 96 82 71 62 58 57 56 61 66 64 59 57 60 60 57 50 40 43 38 43 34 30 29 21 25 24 26 14 10 4 351 342 339 318 320 320 311 306 311 312 299 304
108 237 132 139 129 216 179 27 317 306 248 188 168 186 181 139 148 178 210 84 338 210 213 170 245 343 280 106 198 199 134 167 187 171 178 163 144 146 153 153 143 131 113 110 102 101 94 79 70 65 57 43 51 45 46 39 49 48 46 40 32 40 33 30 31 25 15 21 22 33 25 17 14 5 1 351 353 346 345 334 323 316 312 301 302 306
113 102 104 159 209 144 324 339 318 294 332 158 324 247 154 222 98 190 209 180 84 65 48 4 342 268 82 156 243 263 85 33 178 292 168 150 152 158 165 154 128 108 117 116 117 110 98 89 88 83 73 67 60 53 47 43 44 47 48 45 41 43 36 31 28 25 26 24 32 30 29 23 19 6 1 356 359 356 348 341 332 335 323 317 314 308
84 107 94 44 85 283 291 236 166 215 285 269 260 199 163 200 201 228 294 133 161 123 176 187 231 249 89 112 250 236 292 304 271 222 170 152 157 168 168 165 146 125 113 118 117 110 106 109 112 91 73 60 49 46 44 42 38 41 43 41 41 41 28 25 20 29 32 30 39 33 31 30 12 8 3 1 3 352 349 338 335 334 325 322 316 310
162 209 121 125 96 120 261 133 177 145 175 229 221 181 224 64 77 106 103 355 192 204 183 177 232 246 129 23 270 260 205 212 212 204 212 163 173 170 169 153 129 126 130 133 125 119 115 94 73 66 66 66 59 56 48 43 38 37 45 46 45 46 39 31 21 44 55 45 53 46 41 29 19 14 13 9 1 355 345 342 333 331 324 318 309 308
187 154 151 158 157 170 188 204 202 207 209 193 352 120 190 174 149 137 191 178 228 163 185 204 236 235 81 249 179 138 180 193 201 154 214 312 156 168 168 149 145 138 137 132 128 120 98 89 87 77 69 66 54 47 43 38 39 33 50 49 41 31 23 13 5 33 44 37 39 35 28 23 17 13 9 3 1 354 347 339 339 333 325 319 312 308
159 216 194 181 190 194 197 202 220 73 84 175 209 187 178 196 176 151 56 143 216 171 185 220 238 82 192 212 225 187 193 185 176 160 176 176 183 169 135 141 148 146 147 140 128 120 119 106 87 82 70 64 56 45 33 24 22 23 28 37 35 28 16 358 6 27 35 29 34 29 24 18 14 5 3 360 351 345 341 341 334 331 329 324 307 306
85 187 212 211 208 210 186 122 197 170 181 204 168 174 164 161 177 180 196 214 150 98 238 233 202 220 212 196 213 197 192 198 192 181 173 170 175 170 157 138 133 126 126 129 132 130 116 104 94 81 66 53 46 31 33 28 30 26 29 30 25 20 15 356 10 26 27 24 27 27 16 11 2 358 355 346 342 342 345 343 346 342 332 325 323 326
146 206 208 197 229 184 86 151 153 161 198 179 182 161 164 174 168 193 213 218 135 203 227 232 162 218 211 182 218 210 187 190 189 189 174 154 126 113 137 153 155 151 150 150 146 138 141 135 115 89 60 50 32 32 19 22 31 34 36 35 23 19 15 357 13 22 22 23 26 17 6 359 355 353 351 352 351 353 352 347 344 339 333 333 330 321
135 217 179 187 216 173 177 156 222 171 135 155 177 178 181 165 190 200 215 208 188 217 229 112 177 218 194 193 210 219 191 198 66 65 94 151 176 160 165 166 165 161 159 157 154 156 148 135 126 96 88 51 39 17 357 16 41 38 36 29 19 17 10 2 16 18 17 22 15 3 359 352 355 349 349 355 353 352 345 341 340 337 335 336 335 329
179 197 149 161 210 211 145 68 70 181 156 173 194 179 174 185 197 208 216 220 215 253 274 157 273 250 209 140 242 58 94 93 117 155 180 190 164 175 178 172 162 161 165 155 154 157 155 145 127 117 97 81 55 286 261 90 61 59 53 38 27 25 11 6 16 22 22 18 4 357 352 354 353 348 354 352 347 344 343 340 337 332 330 331 331 328
208 174 50 138 195 212 128 161 130 97 62 138 161 182 196 195 205 210 215 207 187 210 210 229 270 256 160 181 207 117 130 170 181 184 181 196 188 181 181 170 170 170 167 163 157 152 152 144 138 142 149 156 184 215 217 62 58 53 44 30 29 15 0 16 25 21 18 10 0 359 357 353 349 349 348 350 348 342 337 328 326 328 327 324 325 327
174 137 156 172 197 194 26 168 133 109 97 249 224 206 200 202 204 208 202 191 204 206 209 195 232 228 128 174 199 191 188 201 202 187 177 200 200 179 181 177 172 169 168 160 155 153 151 149 154 161 164 175 197 174 59 51 55 49 29 26 16 1 12 21 24 21 16 6 1 359 352 349 348 343 346 347 339 331 323 320 318 319 323 322 319 312
143 167 167 165 208 126 359 140 133 136 214 223 220 208 171 191 202 184 195 211 213 196 213 212 235 116 166 182 196 200 190 200 201 203 192 185 173 181 179 166 168 160 150 147 147 146 144 142 154 160 161 161 145 84 74 65 58 54 46 34 22 29 25 28 25 21 13 3 2 355 349 349 341 340 338 335 332 331 325 324 322 320 312 302 302 302
161 173 161 190 154 139 177 168 148 215 229 229 12 142 194 199 160 185 211 211 204 206 227 240 234 184 192 193 198 211 207 141 150 201 202 199 171 163 166 169 167 161 156 152 148 148 148 149 147 143 138 110 75 57 56 54 45 48 63 43 44 41 36 30 18 20 12 360 1 355 352 347 340 336 332 330 330 324 318 314 309 305 306 305 303 300
156 167 132 137 99 74 137 173 211 225 223 20 209 27 9 137 189 201 240 240 217 211 214 229 231 207 183 202 212 213 55 122 89 350 316 191 213 160 156 171 165 158 155 157 149 147 148 146 138 132 118 102 66 53 47 39 24 39 48 42 43 38 32 20 20 19 7 358 359 351 347 342 335 331 328 326 323 317 315 315 314 313 316 310 303 295
162 110 174 163 197 180 180 198 233 10 322 185 232 199 170 167 158 177 217 236 207 199 203 223 234 219 165 211 179 102 101 115 238 232 165 169 188 193 165 150 151 150 139 135 136 133 129 129 122 115 106 78 57 49 35 21 23 37 44 43 33 31 30 23 21 9 358 355 350 347 344 341 336 329 327 327 324 323 323 324 322 319 325 316 306 302
173 184 190 183 205 160 145 192 241 241 253 235 185 65 194 165 172 186 200 252 197 201 200 210 223 217 187 158 175 133 131 174 234 241 156 162 154 126 89 102 109 116 121 123 120 120 121 121 111 85 75 68 56 41 25 14 18 21 37 31 21 19 21 22 14 1 354 348 345 340 340 338 338 330 327 327 327 324 321 317 309 310 320 315 314 310
30 55 151 204 164 149 189 198 199 208 232 60 155 184 177 164 139 110 175 257 222 188 193 202 219 200 180 184 172 144 153 204 224 216 146 147 141 134 125 123 124 122 125 129 134 126 119 100 88 83 72 61 50 31 19 9 12 26 35 28 17 22 22 16 2 356 349 342 340 337 337 336 335 333 328 324 322 321 317 318 315 310 313 310 306 296
118 151 141 200 186 196 191 211 224 204 251 181 178 173 156 144 130 134 213 247 174 127 191 196 204 206 204 206 151 174 174 211 220 191 139 135 134 132 131 136 130 128 117 114 100 102 101 106 98 80 70 60 49 32 19 2 31 45 39 20 23 29 21 7 354 344 341 339 337 336 337 336 332 329 329 321 314 315 309 308 309 310 313 308 306 305
159 179 207 204 197 206 201 233 267 262 244 174 179 162 149 165 154 186 212 234 153 179 185 183 196 208 203 163 154 186 213 220 64 112 130 130 123 118 102 109 117 122 122 113 110 104 93 86 87 87 78 68 48 38 21 14 34 41 32 22 31 30 11 354 345 344 340 337 332 332 332 331 329 323 317 313 311 308 303 307 308 309 312 310 310 309
191 166 204 202 207 198 194 214 225 278 224 145 18 144 173 136 203 216 217 44 172 182 211 190 202 199 148 165 185 201 81 86 113 110 126 134 128 125 123 120 111 97 88 90 86 91 101 100 95 90 78 61 51 40 28 22 38 32 22 24 30 15 357 347 345 340 335 330 326 322 322 320 319 317 312 313 313 314 312 309 309 303 303 306 303 303
171 171 182 187 197 205 198 216 223 246 212 119 119 81 288 209 243 119 137 317 351 210 159 187 184 177 166 171 157 104 121 118 128 133 126 127 128 132 133 130 123 121 116 104 81 61 85 98 87 76 69 56 46 39 28 31 37 29 17 27 14 360 349 344 339 333 327 322 317 318 315 314 319 320 320 318 319 318 309 310 311 309 297 288 294 296
164 181 174 212 188 189 188 201 213 240 83 168 150 190 192 221 78 187 145 167 224 204 197 155 210 179 183 155 145 135 132 129 116 126 122 119 118 115 109 103 103 100 94 81 75 63 66 85 83 82 68 56 44 39 32 28 32 21 17 10 1 347 340 335 331 325 319 315 311 312 315 318 319 317 316 319 318 311 302 305 308 302 297 296 295 296
200 202 177 202 161 197 204 218 199 185 161 187 52 5 232 177 27 166 49 50 153 220 199 236 183 171 185 145 134 140 140 147 144 146 138 140 131 128 123 119 112 108 100 92 73 62 62 79 87 87 73 56 48 39 35 29 26 11 7 354 350 335 332 329 328 323 315 315 319 320 320 319 319 318 317 320 317 313 310 307 310 306 302 302 295 292
358 145 47 108 220 335 310 224 35 54 247 229 112 30 316 332 37 87 169 161 230 204 178 180 153 151 144 136 130 143 141 144 136 135 119 125 120 110 109 106 101 97 97 93 85 68 74 77 77 78 80 59 48 39 30 24 17 9 345 339 329 330 336 339 333 328 327 326 325 324 323 322 319 319 319 316 313 307 302 301 304 301 301 299 291 287
244 114 123 196 153 164 234 198 175 177 335 291 266 227 212 253 248 22 270 274 319 137 153 98 158 153 149 150 142 145 140 144 129 125 122 118 124 126 123 115 106 99 96 91 77 88 80 82 80 57 46 44 32 33 15 14 9 356 335 319 336 353 349 335 328 326 328 329 324 321 322 324 325 323 320 318 316 309 303 300 298 296 291 289 292 292
241 182 197 195 183 201 238 39 328 331 259 268 246 279 266 220 203 215 280 1 103 91 93 121 124 123 134 150 146 138 144 147 139 142 140 133 130 128 119 119 117 107 92 86 85 79 79 62 55 37 28 21 16 16 5 0 352 347 334 345 11 353 340 331 332 331 326 325 322 321 324 322 321 321 316 316 315 311 309 302 295 292 286 290 292 296
68 138 208 173 198 275 335 234 260 266 252 226 217 236 239 214 163 100 106 115 125 118 115 85 43 140 164 150 146 135 136 152 139 136 131 130 124 123 123 116 114 108 110 98 74 57 57 55 47 37 19 0 3 1 353 350 347 342 16 12 354 343 340 333 331 327 324 324 325 322 323 317 316 314 311 309 307 297 289 293 297 291 287 274 270 273
123 198 141 113 187 225 221 191 144 167 224 203 211 216 211 159 143 129 138 142 152 143 143 124 92 41 59 88 149 145 135 139 138 131 125 127 127 125 123 119 115 111 100 93 83 75 64 61 60 34 10 349 355 346 338 347 355 19 12 355 348 344 347 341 334 330 327 325 321 319 322 317 310 308 307 306 305 306 299 279 272 271 276 287 282 271
206 178 154 193 194 219 227 179 182 219 269 243 247 179 139 164 157 164 181 174 175 173 156 131 118 103 107 77 24 130 126 135 142 132 118 120 121 115 117 123 127 123 114 102 91 70 69 64 54 46 334 318 352 332 330 349 12 7 352 356 351 357 350 343 334 327 324 327 325 322 317 313 312 309 305 303 305 304 303 305 299 275 265 262 273 280